Snowfall_Accumulation
0.0 0.0 0.0 0.0 0.0 0.0 0.0 0.0 0.0 0.0 0.0 0.0 0.0 0.0 0.0 0.0 0.0 0.0 0.0 0.0 0.0 0.0 0.0 0.0 0.0 0.0 0.0 0.0 0.0 0.0 0.0 0.0 0.0 0.0 0.0 0.0 0.0 0.0 0.0 0.0 0.0 0.0 0.0 0.0 0.0 0.0 0.0 0.0 0.0
0.0 0.0 0.0 0.0 0.0 0.7 0.0 0.0 0.0 0.0 0.0 0.0 0.0 0.0 0.0 0.0 0.0 0.0 0.0 0.0 0.0 0.0 0.0 0.0 0.0 0.0 0.0 0.0 0.0 0.0 0.0 0.0 0.0 0.0 0.0 0.0 0.0 0.0 0.0 0.0 0.0 0.0 0.0 0.0 0.0 0.0 0.0 0.0 0.0
0.0 0.0 0.0 0.0 0.0 0.2 0.0 0.0 0.0 0.0 0.0 0.0 0.0 0.0 0.0 0.0 0.0 0.0 0.0 0.0 0.0 0.0 0.0 0.0 0.0 0.0 0.0 0.0 0.0 0.0 0.0 0.0 0.0 0.0 0.0 0.0 0.0 0.0 0.0 0.0 0.0 0.0 0.0 0.0 0.0 0.0 0.0 0.0 0.0
0.0 0.0 0.0 0.0 0.4 0.0 0.0 0.0 0.0 0.0 0.0 0.0 0.0 0.0 0.0 0.0 0.0 0.0 0.0 0.0 0.0 0.0 0.0 0.0 0.0 0.0 0.0 0.0 0.0 0.0 0.0 0.0 0.0 0.0 0.0 0.0 0.0 0.0 0.0 0.0 0.0 0.0 0.0 0.0 0.0 0.0 0.0 0.0 0.0
0.0 0.0 0.1 0.5 0.3 0.0 0.0 0.0 0.0 0.0 0.0 0.0 0.0 0.0 0.0 0.0 0.0 0.0 0.0 0.0 0.0 0.0 0.0 0.0 0.0 0.0 0.0 0.0 0.0 0.0 0.0 0.0 0.0 0.0 0.0 0.0 0.0 0.0 0.0 0.0 0.0 0.0 0.0 0.0 0.0 0.0 0.0 0.0 0.0
0.0 0.1 0.6 1.6 0.7 0.0 0.0 0.0 0.0 0.0 0.0 0.0 0.0 0.0 0.0 0.0 0.0 0.0 0.0 0.0 0.0 0.0 0.0 0.0 0.0 0.0 0.0 0.0 0.0 0.0 0.0 0.0 0.0 0.0 0.0 0.0 0.0 0.0 0.0 0.0 0.0 0.0 0.0 0.0 0.0 0.0 0.0 0.0 0.0
0.3 0.7 1.4 1.1 0.5 0.0 0.0 0.0 0.0 0.0 0.0 0.0 0.0 0.0 0.0 0.0 0.0 0.0 0.0 0.0 0.0 0.0 0.0 0.0 0.0 0.0 0.0 0.0 0.0 0.0 0.0 0.0 0.0 0.0 0.0 0.0 0.0 0.0 0.0 0.0 0.0 0.0 0.0 0.0 0.0 0.0 0.0 0.0 0.0
0.0 0.5 1.1 0.8 0.4 0.1 0.0 0.0 0.0 0.0 0.0 0.0 0.0 0.0 0.0 0.0 0.0 0.0 0.0 0.0 0.0 0.0 0.0 0.0 0.0 0.0 0.0 0.0 0.0 0.0 0.0 0.0 0.0 0.0 0.0 0.0 0.0 0.0 0.0 0.0 0.0 0.0 0.0 0.0 0.0 0.0 0.0 0.0 0.0
0.0 0.8 2.2 0.7 0.3 0.1 0.0 0.0 0.0 0.0 0.0 0.0 0.0 0.0 0.0 0.0 0.0 0.0 0.0 0.0 0.0 0.0 0.0 0.0 0.0 0.0 0.0 0.0 0.0 0.0 0.0 0.0 0.0 0.0 0.0 0.0 0.0 0.0 0.0 0.0 0.0 0.0 0.0 0.0 0.0 0.0 0.0 0.0 0.0
0.4 1.7 0.3 0.1 0.0 0.1 0.1 0.0 0.0 0.0 0.0 0.0 0.0 0.0 0.0 0.0 0.0 0.0 0.0 0.0 0.0 0.0 0.0 0.0 0.0 0.0 0.0 0.0 0.0 0.0 0.0 0.0 0.0 0.0 0.0 0.0 0.0 0.0 0.0 0.0 0.0 0.0 0.0 0.0 0.0 0.0 0.0 0.0 0.0
0.4 0.4 0.1 0.1 0.1 0.1 0.1 0.0 0.0 0.0 0.0 0.0 0.0 0.0 0.0 0.0 0.0 0.0 0.0 0.0 0.0 0.0 0.0 0.0 0.0 0.0 0.0 0.0 0.0 0.0 0.0 0.0 0.0 0.0 0.0 0.0 0.0 0.0 0.0 0.0 0.0 0.0 0.0 0.0 0.0 0.0 0.0 0.0 0.0
0.3 0.2 0.2 0.1 0.1 0.1 0.2 0.1 0.1 0.1 0.1 0.0 0.0 0.0 0.0 0.0 0.0 0.0 0.0 0.0 0.0 0.0 0.0 0.0 0.0 0.0 0.0 0.0 0.0 0.0 0.0 0.0 0.0 0.0 0.0 0.0 0.0 0.0 0.0 0.0 0.0 0.0 0.0 0.0 0.0 0.0 0.0 0.0 0.0
0.1 0.1 0.1 0.0 0.1 0.1 0.1 0.1 0.1 0.1 0.1 0.0 0.0 0.0 0.0 0.0 0.0 0.0 0.0 0.0 0.0 0.0 0.0 0.0 0.0 0.0 0.0 0.0 0.0 0.0 0.0 0.0 0.0 0.0 0.0 0.0 0.0 0.0 0.0 0.0 0.0 0.0 0.0 0.0 0.0 0.0 0.0 0.0 0.0
0.1 0.1 0.1 0.0 0.1 0.1 0.2 0.2 0.2 0.1 0.0 0.0 0.0 0.0 0.0 0.0 0.0 0.0 0.0 0.0 0.0 0.0 0.1 0.1 0.0 0.1 0.0 0.0 0.0 0.0 0.0 0.0 0.0 0.0 0.0 0.0 0.0 0.0 0.0 0.0 0.0 0.0 0.0 0.0 0.0 0.0 0.0 0.0 0.0
0.1 0.2 0.2 0.1 0.1 0.2 0.3 0.4 0.3 0.2 0.1 0.0 0.0 0.1 0.0 0.0 0.0 0.0 0.0 0.0 0.0 0.0 0.0 0.1 0.1 0.0 0.1 0.0 0.0 0.0 0.0 0.0 0.0 0.0 0.0 0.0 0.0 0.0 0.0 0.0 0.0 0.0 0.0 0.0 0.0 0.0 0.0 0.0 0.0
0.5 1.3 1.7 0.4 0.1 0.3 0.7 2.2 0.7 0.3 0.2 0.2 0.1 0.2 0.1 0.1 0.0 0.0 0.1 0.0 0.1 0.0 0.0 0.1 0.1 0.0 0.1 0.1 0.0 0.0 0.0 0.0 0.0 0.0 0.0 0.0 0.0 0.0 0.0 0.0 0.0 0.0 0.0 0.0 0.0 0.0 0.0 0.0 0.0
3.8 4.7 3.2 1.5 0.2 0.4 1.2 2.2 0.8 0.4 0.4 0.5 0.4 0.3 0.3 0.3 0.2 0.3 0.2 0.1 0.2 0.1 0.2 0.1 0.1 0.1 0.0 0.1 0.1 0.0 0.0 0.0 0.0 0.0 0.0 0.0 0.0 0.0 0.1 0.0 0.0 0.0 0.0 0.0 0.0 0.1 0.0 0.0 0.0
6.3 3.7 2.9 2.4 1.1 1.1 1.9 1.6 0.7 0.5 0.7 0.6 0.5 0.5 0.5 0.4 0.4 0.4 0.2 0.3 0.4 0.4 0.2 0.1 0.1 0.3 0.2 0.2 0.1 0.0 0.0 0.0 0.0 0.0 0.0 0.0 0.0 0.0 0.1 0.0 0.0 0.1 0.1 0.0 0.1 0.0 0.1 0.0 0.0
4.4 4.0 2.8 1.7 0.9 2.0 2.5 1.7 1.6 0.8 0.9 0.9 1.1 1.1 1.0 0.7 0.7 0.5 0.5 0.5 0.3 0.4 0.3 0.3 0.3 0.3 0.4 0.4 0.2 0.2 0.1 0.0 0.0 0.0 0.0 0.0 0.0 0.0 0.1 0.1 0.0 0.0 0.1 0.1 0.1 0.1 0.1 0.0 0.0
5.1 5.8 3.5 2.0 1.0 1.9 2.4 2.2 1.6 1.5 1.5 1.4 1.4 1.2 1.1 1.0 0.7 0.8 0.7 0.5 0.5 0.4 0.5 0.3 0.4 0.4 0.4 0.3 0.4 0.4 0.4 0.1 0.1 0.0 0.1 0.0 0.1 0.0 0.1 0.1 0.2 0.0 0.1 0.1 0.1 0.0 0.1 0.1 0.1
5.9 5.5 4.6 4.0 2.5 2.1 3.1 3.8 2.0 1.6 1.5 1.3 1.3 1.2 1.3 1.2 1.0 1.1 0.8 0.7 0.7 0.5 0.8 0.7 0.5 0.5 0.4 0.3 0.4 0.5 0.4 0.4 0.1 0.3 0.2 0.3 0.1 0.1 0.1 0.1 0.3 0.0 0.1 0.1 0.3 0.1 0.1 0.2 0.2
6.6 2.7 3.3 4.2 6.6 7.3 5.6 9.2 4.2 2.5 2.0 1.7 1.3 1.4 1.6 1.6 1.5 1.4 1.4 1.2 1.1 0.6 1.0 1.1 0.9 0.5 0.5 0.6 0.6 0.7 0.5 0.6 0.5 0.6 0.7 0.3 0.2 0.1 0.2 0.2 0.3 0.0 0.1 0.1 0.3 0.2 0.0 0.1 0.2
5.1 1.8 3.4 5.2 7.5 9.3 5.0 8.1 5.5 3.1 3.0 2.8 1.7 1.7 2.0 2.0 2.0 2.1 2.0 1.6 1.3 1.0 1.0 1.3 0.8 0.8 0.7 0.5 0.5 0.6 0.7 0.6 0.7 0.6 0.6 0.5 0.5 0.4 0.3 0.2 0.4 0.1 0.1 0.1 0.2 0.3 0.3 0.1 0.2
2.9 2.7 3.9 5.8 11.4 16.4 5.7 7.0 6.1 5.4 5.6 3.6 2.0 2.0 2.3 2.4 2.4 2.0 1.9 1.8 1.5 1.3 1.3 1.3 1.4 1.0 0.7 0.4 0.6 0.9 1.4 0.7 0.5 0.6 0.5 0.4 0.4 0.5 0.6 0.3 0.4 0.5 0.1 0.1 0.2 0.2 0.4 0.4 0.2
6.7 17.4 28.0 28.2 24.7 12.7 3.6 5.3 6.2 4.7 3.7 3.3 3.1 3.0 2.9 2.8 2.6 2.4 2.0 2.1 2.0 1.8 1.7 1.7 1.6 1.6 1.3 0.7 0.8 1.3 1.4 0.7 0.7 0.9 0.7 0.5 0.5 0.4 0.4 0.5 0.5 0.7 0.6 0.6 0.4 0.3 0.3 0.5 0.3
8.4 13.6 20.9 18.6 11.7 6.4 4.3 5.7 6.5 4.0 2.9 2.6 3.0 2.9 2.4 2.4 2.4 2.5 2.6 2.3 2.2 1.9 1.8 1.8 1.8 1.6 1.5 1.2 1.1 1.2 1.2 1.1 0.8 0.7 1.0 0.8 0.7 0.3 0.3 0.3 0.4 0.5 0.5 0.4 0.4 0.4 0.5 0.6 0.5
9.5 11.2 9.6 15.3 10.1 6.9 5.7 5.0 4.3 2.9 2.2 2.4 2.6 2.7 2.8 2.6 2.6 2.4 2.3 2.3 2.2 2.2 2.0 1.7 1.6 1.4 1.3 1.1 1.4 1.0 1.2 1.0 0.7 0.5 0.6 0.7 0.6 0.6 0.3 0.2 0.3 0.4 0.5 0.4 0.5 0.4 0.4 0.5 0.7
4.3 7.0 12.9 20.7 16.9 10.0 5.8 4.7 6.1 5.6 4.5 3.2 2.9 3.2 3.1 2.7 2.4 2.1 2.0 2.1 2.1 2.0 1.9 1.6 1.4 1.6 1.3 1.2 1.3 1.4 1.1 1.3 1.0 0.7 0.5 0.5 0.5 0.6 0.6 0.3 0.3 0.3 0.3 0.2 0.3 0.4 0.5 0.5 0.5
7.6 11.5 15.3 16.9 13.9 12.2 8.8 7.7 7.2 6.1 5.4 4.5 3.7 3.8 3.6 2.9 2.6 2.4 2.1 2.0 2.1 1.8 1.4 1.5 1.3 1.5 1.3 1.1 1.0 1.1 0.9 1.1 0.7 0.7 0.5 0.4 0.4 0.5 0.7 0.3 0.3 0.4 0.3 0.2 0.2 0.5 0.5 0.5 0.5
5.8 9.3 12.6 18.4 14.1 10.0 9.8 9.4 5.5 5.1 4.9 4.5 4.0 3.7 3.3 3.1 2.7 2.5 2.3 1.7 1.6 1.9 1.6 1.4 1.1 1.3 1.3 1.3 1.2 1.0 0.9 0.9 1.0 1.0 1.0 0.9 1.0 0.6 0.4 0.6 0.4 0.5 0.3 0.2 0.2 0.3 0.4 0.5 0.5